Location: Unspecified
(48.8582°N, 2.2947°E)
Time: 00:40:43
(UTC+02:00)

Daily predictions for brighter satellites

Satellite Brightness Start Highest point End
(mag) Time Altitude Azimuth Time Altitude Azimuth Time Altitude Azimuth
Meteor 1-21 4.3 00:01:39 10° NNW 00:07:16 74° W 00:08:34 53° SSW
NOSS 0 Rocket 4.2 00:09:17 47° ESE 00:09:17 47° ESE 00:15:13 10° NE
H-2A R/B 3.6 00:08:35 21° SW 00:10:42 27° W 00:14:57 10° NW
Cosmos 1386 Rocket 4.5 00:11:20 43° SSW 00:13:32 79° W 00:19:53 10° N
Cosmos 2297 4.4 00:08:08 10° NNW 00:13:33 43° NE 00:14:49 38° E
Cosmos 724 4.4 00:08:03 10° NW 00:13:51 60° WSW 00:14:46 53° SSW
deb Chang Zheng 4 4.2 00:09:53 10° NNE 00:13:18 45° ENE 00:13:18 45° ENE
NOSS 3-2 (C) 4.0 00:10:50 10° NW 00:18:14 72° SW 00:20:40 48° SSE
Cosmos 1626 Rocket 4.0 00:14:21 10° NNW 00:18:32 50° W 00:18:36 50° W
Cosmos 1241 Rocket 4.5 00:15:51 24° SW 00:20:04 86° NW 00:26:35 10° NE
Cosmos 1842 3.9 00:17:15 10° NNW 00:20:33 54° NW 00:20:33 54° NW
Cosmos 1666 3.7 00:27:01 44° WNW 00:27:01 44° WNW 00:30:27 10° N
Cosmos 2278 Rocket 2.1 00:23:31 10° NNW 00:29:13 76° WSW 00:29:45 70° SSW
Terra 3.0 00:32:25 32° WSW 00:33:00 33° W 00:37:18 10° NNW
GP-B 4.0 00:29:19 10° NNW 00:33:31 42° W 00:33:52 41° W
Meteor 1-4 Rocket 4.0 00:35:13 36° NNE 00:35:13 36° NNE 00:37:34 10° NNE
ATLAS CENTAUR R/B 3.9 00:19:40 10° WNW 00:34:30 62° NNE 00:37:17 32° E
Mayak 1.2 00:34:44 10° NE 00:35:28 13° ENE 00:35:28 13° ENE
Cosmos 1844 Rocket 4.0 00:32:59 10° NW 00:37:45 28° WSW 00:38:41 27° WSW
Cosmos 1743 4.5 00:37:41 26° WNW 00:37:56 26° WNW 00:41:12 10° NNW
ATLAS 2AS CENTAUR R/B 4.0 00:31:36 10° WSW 00:39:14 48° NNW 00:47:06 10° NE
Cosmos 1825 Rocket 3.9 00:37:18 10° N 00:40:54 60° NNW 00:40:54 60° NNW
Cosmos 1992 Rocket 3.9 00:42:53 85° W 00:42:56 85° WNW 00:48:12 10° NNE
Cosmos 2181 Rocket 4.1 00:38:06 10° NNW 00:44:33 74° W 00:45:42 59° SSW
Cosmos 2058 Rocket 4.5 00:46:53 30° NE 00:46:53 30° NE 00:49:37 10° NNE
Meteor 2-5 Rocket 3.9 00:42:55 10° N 00:48:46 61° ENE 00:49:13 60° E
NOSS 3-4 (A) 3.3 00:47:53 67° SSW 00:48:46 80° SE 00:55:21 10° NE
NOSS 3-4 (C) 3.3 00:48:01 67° SSW 00:48:52 80° SE 00:55:27 10° NE
Meteor 1-24 Rocket 4.4 00:45:44 10° N 00:51:15 42° ENE 00:51:48 41° E
COSMOS 2455 3.0 00:46:31 10° NNW 00:52:33 65° NE 00:53:26 58° E
Cosmos 1709 Rocket 4.1 00:51:23 52° SW 00:52:45 66° WNW 00:58:59 10° N
Cosmos 968 Rocket 3.6 00:47:43 10° NNW 00:52:31 66° W 00:52:31 66° W
CENTAUR R/B 3.0 00:45:49 10° NW 00:53:35 87° NE 00:56:02 51° SE
Cosmos 2219 Rocket 2.5 00:52:50 46° WSW 00:54:18 62° WNW 00:59:57 10° NNE
Cosmos 2228 4.4 00:56:38 32° NE 00:56:38 32° NE 00:59:26 10° NNE
Cosmos 1758 Rocket 4.1 00:52:00 10° NNW 00:55:25 55° NNW 00:55:25 55° NNW
CZ-2C R/B 2.9 00:51:06 10° NNE 00:56:00 58° E 00:56:00 58° E
ATLAS CENTAUR R/B 2.8 00:54:50 10° NNW 00:57:09 32° N 00:57:09 32° N
SL-16 R/B 3.0 01:02:07 37° ENE 01:02:07 37° ENE 01:06:16 10° NE
SL-08 ROCKET BODY 4.2 01:01:40 81° S 01:02:00 90° SW 01:07:54 10° N
COSMOS 2428 4.0 00:58:26 17° WSW 01:02:24 38° NW 01:07:45 10° NNE
Meteor 1-15 Rocket 4.3 01:06:49 66° WSW 01:07:25 71° WNW 01:13:22 10° N
USA 215 3.4 01:06:29 39° E 01:09:04 73° NNE 01:15:37 10° NW
CZ-2C R/B 3.3 01:13:16 57° WNW 01:13:16 57° WNW 01:17:25 10° NNW
Cosmos 2333 Rocket 2.7 01:14:25 44° W 01:15:46 54° NW 01:21:20 10° NNE
ALOS 2 3.3 01:17:17 52° NNW 01:17:17 52° NNW 01:20:39 10° NNW
CZ-4B R/B 4.1 01:16:37 10° N 01:21:10 46° WNW 01:21:12 46° WNW
Cosmos 1943 Rocket 4.2 01:18:25 10° N 01:22:38 22° NE 01:25:49 14° E
Meteor 2-13 Rocket 4.5 01:22:48 65° WSW 01:23:27 70° WNW 01:29:37 10° N
Cosmos 2154 Rocket 4.2 01:23:31 54° E 01:23:38 54° E 01:29:38 10° NNE
RESURS DK-1 3.8 01:27:58 36° NNE 01:27:58 36° NNE 01:30:32 10° NNE
Cosmos 2327 Rocket 4.4 01:31:02 76° SW 01:31:32 83° W 01:37:52 10° N
Lacrosse 5 3.3 01:27:29 10° W 01:32:11 37° NNW 01:36:54 10° NE
Cosmos 2369 Rocket 3.3 01:32:22 10° NNW 01:37:43 39° NE 01:39:09 34° E
Cosmos 2237 Rocket 2.7 01:36:54 47° W 01:37:48 52° NW 01:43:19 10° NNE
In-Cosmos 22 4.1 01:40:01 10° N 01:44:54 75° N 01:44:54 75° N
BREEZE-M DEB (TANK) 3.6 01:48:56 10° W 01:56:43 53° W 01:56:43 53° W
Cosmos 962 Rocket 4.3 02:03:41 77° SE 02:03:55 79° E 02:10:12 10° NNE
NOSS 2-2 (C) 4.4 02:11:33 49° NNE 02:11:33 49° NNE 02:15:22 10° NE
Cosmos 2278 Rocket 4.4 02:09:55 10° WNW 02:11:35 12° W 02:11:35 12° W
Mayak 0.0 02:09:15 10° N 02:12:08 40° NNW 02:12:08 40° NNW
Nadezhda 3 Rocket 4.3 02:13:08 10° NNW 02:19:16 52° W 02:19:31 52° W
Cosmos 2341 Rocket 3.9 02:24:11 74° WSW 02:24:37 78° W 02:30:54 10° N
GEOS 3 Rocket 3.6 02:25:59 75° NW 02:25:59 75° NW 02:30:50 10° NW
CZ-4B R/B 4.2 02:35:11 15° NNW 02:35:11 15° NNW 02:35:50 10° NNW
NOSS 2-2 (E) 4.5 02:35:44 46° NW 02:35:45 46° NW 02:40:44 10° NE
Cosmos 1603 3.6 02:36:14 79° E 02:36:14 79° E 02:41:43 10° NNE
CZ-2C R/B 4.2 02:32:04 10° N 02:36:22 25° WNW 02:37:31 23° W
COSMOS 2455 4.3 02:33:07 10° NW 02:36:33 24° W 02:36:33 24° W
Cosmos 1937 Rocket 3.5 02:35:04 10° NNW 02:40:15 79° NE 02:40:15 79° NE
Iridium 4 Rocket 4.2 02:43:28 38° NW 02:43:28 38° NW 02:46:40 10° N
Cosmos 864 Rocket 4.4 02:42:00 65° SE 02:42:36 69° E 02:48:46 10° NNE
Cosmos 1295 Rocket 4.5 02:42:15 64° WSW 02:42:48 67° WNW 02:49:02 10° N
Cosmos 1898 Rocket 3.7 02:38:05 10° NNW 02:42:40 63° NW 02:42:40 63° NW
CENTAUR R/B 4.1 02:37:14 10° WNW 02:43:11 29° WSW 02:43:11 29° WSW
SL-16 R/B 3.1 02:43:58 35° WNW 02:45:08 39° NW 02:50:26 10° NNE
Cosmos 1570 Rocket 4.1 02:48:51 66° NW 02:48:51 66° NW 02:53:59 10° NNE
Meteor 2-21 Rocket 4.3 02:50:24 74° S 02:51:01 86° E 02:57:17 10° N
Cosmos 2366 rocket 3.9 02:51:23 71° S 02:52:08 84° E 02:58:31 10° N
USA 215 3.8 02:53:48 40° W 02:53:48 40° W 02:58:36 10° WNW
Cosmos 1727 Rocket 3.8 02:46:41 10° N 02:52:54 88° E 02:53:38 72° SSE
Meteor 2-15 Rocket 4.3 02:47:24 10° NNW 02:53:32 75° W 02:53:55 72° SW
Cosmos 371 Rocket 3.6 02:54:11 59° ENE 02:54:11 59° ENE 02:58:26 10° NNE
Cosmos 1470 4.0 02:54:59 40° NNE 02:54:59 40° NNE 02:57:32 10° N
H-2A R/B 3.5 02:51:58 10° NNE 02:54:35 41° NNE 02:54:35 41° NNE
Cosmos 468 Rocket 4.0 02:56:24 72° E 02:56:24 72° E 03:01:18 10° NNE
CZ-3A R/B 3.6 02:44:47 10° WNW 02:59:14 86° SSW 03:04:14 13° SE
Cosmos-2242 3.7 03:00:23 53° NE 03:00:23 53° NE 03:04:05 10° NNE
Cosmos 990 Rocket 4.0 02:57:29 10° NNW 03:02:19 72° WNW 03:02:19 72° WNW
Meteor 2-16 Rocket 4.3 03:03:12 71° S 03:03:56 89° E 03:10:04 10° N
Cosmos 2150 Rocket 4.1 03:00:17 10° NNW 03:04:49 63° WNW 03:04:49 63° WNW
Cosmos 1943 Rocket 2.0 03:01:34 10° NNW 03:07:06 86° WSW 03:07:17 84° S
Resurs 1-4 Rocket 3.9 03:04:28 10° NE 03:08:23 21° E 03:10:10 18° ESE
ADEOS Rocket 3.3 03:04:58 10° NNE 03:10:16 46° E 03:11:11 42° SE
PSLV R/B 4.5 03:12:21 58° NNE 03:12:21 58° NNE 03:15:52 10° N
Cosmos 1656 Rocket 4.3 03:07:48 10° NNW 03:13:24 53° NE 03:16:43 24° SE
Cosmos 1953 3.8 03:15:54 29° NW 03:15:54 29° NW 03:18:31 10° N
Lacrosse 5 3.4 03:11:29 10° NW 03:16:10 35° N 03:20:50 10° ENE
Cosmos 2298 Rocket 4.5 03:11:03 10° NNW 03:15:26 48° WNW 03:15:26 48° WNW
Cosmos 2058 3.8 03:14:13 10° N 03:18:11 44° ENE 03:18:11 44° ENE
Cosmos 1814 Rocket 3.9 03:18:15 78° SE 03:18:28 80° ESE 03:23:44 10° NNE
CZ-2D R/B 3.7 03:17:03 10° NE 03:21:32 26° E 03:23:28 21° SE
Cosmos 2369 Rocket 2.9 03:16:28 10° NW 03:20:54 39° W 03:20:54 39° W
COBE Rocket 4.1 03:16:48 10° NNE 03:21:52 63° E 03:22:14 61° SE
Cosmos 841 Rocket 3.7 03:22:55 56° SE 03:23:17 58° ESE 03:28:23 10° NNE
Cosmos 304 Rocket 4.5 03:24:11 43° ESE 03:24:22 43° ESE 03:28:54 10° NE
SL-08 R/B 3.4 03:24:52 63° ESE 03:25:23 69° ENE 03:30:10 10° N
Cosmos 2221 4.3 03:26:44 22° ESE 03:27:45 24° E 03:31:13 10° NE
Cosmos 1242 Rocket 3.9 03:31:07 36° ENE 03:31:07 36° ENE 03:33:48 10° NNE
ARIANE 5 R/B 4.1 03:29:14 10° NE 03:33:44 28° E 03:35:53 21° SE
SL-24 R/B - RUBIN 2 4.4 03:32:45 56° SW 03:34:13 84° NW 03:40:18 10° NE
Cosmos 1943 3.2 03:36:05 58° WSW 03:37:00 70° WNW 03:42:42 10° NNE
Iridium 2 4.3 03:37:41 54° ENE 03:37:41 54° ENE 03:41:09 10° NNE
Cosmos 2123 Rocket 4.3 03:37:32 10° N 03:43:47 63° ENE 03:47:20 26° SSE
Cosmos 1842 Rocket 3.5 03:43:55 74° ESE 03:43:59 74° E 03:48:22 10° NNE
BREEZE M DEB (TANK) 3.9 03:47:22 28° SE 03:47:22 28° SE 03:50:44 10° ESE
Cosmos 1821 Rocket 4.0 03:46:56 44° S 03:49:03 78° E 03:55:16 10° NNE
SL-16 R/B 2.6 03:46:37 30° SSE 03:49:56 80° ENE 03:56:10 10° NNW
Cosmos 2151 2.9 03:47:10 10° NNW 03:51:07 73° NW 03:51:07 73° NW
Cosmos 1743 Rocket 3.9 03:48:47 10° NNW 03:52:42 51° WNW 03:52:42 51° WNW
BREEZE-M DEB (TANK) 4.0 03:53:47 50° SW 03:55:13 75° SSE 04:10:57 10° ENE
IRS-1D 4.1 03:54:49 10° NNE 03:59:50 51° E 04:01:51 33° SSE
Meteor 1-16 Rocket 4.4 03:59:46 47° SW 04:01:11 61° WNW 04:06:58 10° N
Cosmos 1934 Rocket 4.0 04:00:00 38° S 04:02:27 76° E 04:08:31 10° NNE
Cosmos 372 Rocket 3.8 04:02:31 10° NNW 04:07:42 79° WSW 04:09:33 41° S
Spot 4 Rocket 4.3 04:03:28 10° NNE 04:08:36 61° ESE 04:10:37 35° SSE
Cosmos 1626 3.1 04:07:31 10° NNW 04:10:08 35° NW 04:10:08 35° NW
ADEOS 4.3 04:06:20 10° NNE 04:11:24 48° E 04:14:01 26° SSE
CBERS-1 4.0 04:06:32 10° N 04:11:39 72° WNW 04:12:58 49° SW
Cosmos 1763 Rocket 4.0 04:15:11 37° W 04:16:21 43° WNW 04:21:13 10° NNE
Cosmos 540 Rocket 3.4 04:16:28 46° SSW 04:18:01 84° ESE 04:23:10 10° NNE
Cosmos 1605 Rocket 4.2 04:14:21 27° S 04:18:02 71° E 04:24:25 10° NNE
MOS 1 Rocket 3.5 04:13:51 10° NNE 04:18:08 57° E 04:19:43 36° SSE
Helios 1A Rocket 3.6 04:15:30 10° N 04:19:20 39° WNW 04:19:35 39° WNW
SL-27 R/B 4.4 04:18:47 18° SE 04:19:50 21° E 04:22:29 10° NE
Gblst 52 Del rocket 4.2 04:18:17 35° WSW 04:20:57 88° NNW 04:26:33 10° ENE
NPP 3.8 04:16:54 10° N 04:22:12 58° WNW 04:23:55 40° SW
Cosmos 2098 Rocket 3.5 04:20:17 40° SSW 04:22:24 75° W 04:27:14 10° N
IRS-1C 4.1 04:20:36 10° N 04:25:56 72° WNW 04:27:54 39° SW
Cosmos 1726 3.4 04:24:46 25° SE 04:26:18 37° E 04:29:45 10° NNE
UNKNOWN OBJECT B 4.0 04:24:11 10° NNE 04:28:02 40° E 04:30:06 23° SSE
Cosmos 836 Rocket 4.5 04:26:23 42° SW 04:28:13 76° WNW 04:33:34 10° NNE
USA 229 DEB 3.8 04:21:13 10° NW 04:28:14 61° WSW 04:35:24 10° SSE
USA 229 3.8 04:21:19 10° NW 04:28:20 62° WSW 04:35:30 10° SSE
Cosmos 1400 Rocket 2.6 04:26:08 10° NNW 04:30:04 70° W 04:30:44 56° SSW
Cosmos 1633 Rocket 3.7 04:25:54 10° N 04:30:12 53° ENE 04:34:01 13° SSE
COSMOS 2406 3.4 04:29:57 30° S 04:32:43 66° ESE 04:38:23 10° NNE
NOSS 3-1 (A) 4.3 04:25:54 10° NW 04:33:16 72° NE 04:41:33 10° SE
Cosmos 1125 Rocket 3.9 04:30:39 10° NW 04:35:31 40° WSW 04:36:29 37° SW
AQUA 4.4 04:35:35 10° N 04:40:06 44° WNW 04:41:34 34° WSW
ERS-1 4.5 04:39:20 10° N 04:44:16 67° WNW 04:46:27 33° SW
Resurs 1-4 Rocket 2.2 04:43:28 10° N 04:48:41 63° WNW 04:51:15 30° SW
Cosmos 1943 Rocket 4.0 04:47:07 10° WNW 04:48:45 14° W 04:48:45 14° W
Cosmos 2278 4.5 04:46:31 10° NNW 04:52:05 55° ENE 04:57:37 10° SE
Cosmos 1447 Rocket 4.4 04:46:49 10° NNW 04:52:59 76° W 04:58:56 11° S
Cosmos 292 Rocket 3.9 04:50:16 25° S 04:52:59 69° ESE 04:57:48 10° NNE
USA 161 3.0 04:52:29 18° ESE 04:53:19 23° ENE 04:54:58 10° NNE
ADEOS Rocket 3.8 04:50:57 10° N 04:55:41 30° WNW 04:58:08 21° WSW
Cosmos 1328 Rocket 4.4 04:53:16 12° SSE 04:57:01 48° E 05:01:13 10° NNE
Lacrosse 5 2.0 04:54:39 10° NW 04:59:45 75° NNE 05:04:50 10° ESE
Cosmos 482 Debris 3.7 05:01:45 41° SSE 05:01:45 41° SSE 05:04:03 10° SE
CZ-2D R/B 2.4 04:56:40 10° N 05:01:53 51° WNW 05:04:47 25° SW
Cosmos 1697 Rocket 4.2 04:57:03 10° NNW 05:02:23 40° NE 05:07:42 10° ESE
NOSS 3-1 (C) 4.0 04:55:11 10° NW 05:02:37 72° SW 05:10:53 10° SSE
Cosmos 1666 Rocket 3.6 04:59:31 10° NNW 05:03:54 59° W 05:06:54 20° S
Cosmos 2285 Rocket 4.0 05:00:33 22° SSW 05:04:55 83° WNW 05:11:23 10° NNE
Cosmos 2221 3.2 05:03:37 28° WSW 05:05:08 37° WNW 05:09:11 10° N
Cosmos 1242 Rocket 4.4 05:05:15 16° WNW 05:05:37 16° WNW 05:07:54 10° NNW
Cosmos 1805 Rocket 4.1 05:01:33 10° NNW 05:05:40 38° W 05:07:22 27° SW
Cosmos 1908 4.1 05:06:08 28° WSW 05:07:08 33° WNW 05:10:39 10° N
MOZ.5/SAFIR/RUBIN 5/SL-8 4.1 05:06:26 22° SSW 05:09:09 45° W 05:13:40 10° NNW
Cosmos 1933 Rocket 3.9 05:08:15 10° N 05:12:44 67° ENE 05:17:09 10° SSE
ARIANE 5 R/B 3.0 05:08:02 10° N 05:13:04 47° WNW 05:16:12 21° SW
Cosmos 1300 2.6 05:12:56 21° SSW 05:15:23 80° W 05:19:14 10° N
Meteor 2-17 Rocket 4.4 05:12:52 11° S 05:18:44 86° W 05:24:52 10° N
Cosmos 2173 Rocket 4.1 05:14:21 10° S 05:20:40 82° E 05:27:04 10° N
Cosmos 2082 Rocket 3.8 05:17:53 10° SSE 05:22:43 31° ESE 05:27:36 10° NE
Okean O Rocket 3.2 05:21:56 10° NNE 05:26:00 35° E 05:30:02 10° SSE
Meteor 2-3 Rocket 3.9 05:23:22 10° N 05:29:02 77° ENE 05:34:43 10° SSE
Cosmos 1151 Rocket 3.5 05:25:16 10° S 05:29:30 60° E 05:33:44 10° NNE
Cosmos 1455 3.8 05:28:24 10° SSE 05:31:50 35° E 05:35:17 10° NNE
SL-16 R/B 3.8 05:31:43 16° WSW 05:34:15 20° W 05:38:43 10° NW
Cosmos 1315 Rocket 3.8 05:30:53 10° NNW 05:34:20 27° W 05:36:30 17° SW
Abrixas 4.1 05:36:59 15° S 05:36:59 15° S 05:38:04 10° SSE
CZ-4B R/B 4.5 05:31:11 10° NNE 05:36:22 40° E 05:41:25 10° SSE
ADEOS II 2.3 05:32:42 10° NNE 05:37:59 72° ESE 05:43:13 10° S
Sich 1 4.1 05:34:25 10° NNW 05:38:07 27° W 05:40:51 15° SW
CZ-2D R/B 3.9 05:34:47 10° N 05:38:34 40° WNW 05:41:28 15° SW
Shenzhou-11 Module 4.5 05:37:44 10° S 05:39:11 13° SSE 05:40:38 10° SE
Cosmos 1459 Rocket 3.9 05:36:32 10° SSW 05:42:37 70° WNW 05:48:41 10° N
Cosmos 2369 3.7 05:41:07 10° NNW 05:46:44 63° WSW 05:52:17 10° SSE
PSLV R/B 4.0 05:48:27 10° NNE 05:52:38 86° ESE 05:56:46 10° SSW
Cosmos 773 Rocket 4.0 05:48:23 10° SSW 05:53:40 76° WNW 05:59:00 10° NNE
SL-27 R/B 3.5 05:52:29 14° WSW 05:54:54 29° WNW 05:57:59 10° N
Cosmos 1656 3.7 05:50:01 10° NNW 05:55:42 69° WSW 06:01:21 10° SSE
Cosmos 1470 Rocket 4.0 05:52:17 10° NNW 05:56:19 39° W 06:00:20 10° SSW
Meteor 1-27 4.2 05:53:20 10° SSW 05:59:00 86° W 06:04:38 10° N
Cosmos 1726 3.8 05:59:23 11° WSW 06:01:46 18° WNW 06:04:27 10° NNW
UNKNOWN OBJECT B 4.4 05:59:09 10° NNW 06:02:19 22° WNW 06:05:29 10° WSW
SL-16 R/B 4.4 06:01:19 10° NNW 06:06:19 31° NE 06:11:18 10° ESE
Cosmos 2228 Rocket 3.7 06:02:08 10° SW 06:06:21 40° WNW 06:10:33 10° N
MOS 1-B 4.5 06:00:42 10° N 06:06:27 64° WNW 06:12:11 10° SSW
Cosmos 2061 Rocket 4.3 06:00:41 10° SSW 06:06:58 55° WNW 06:13:17 10° N
CZ-4B R/B 3.1 06:03:44 10° N 06:08:11 77° WNW 06:12:42 10° SSW
Cosmos 1515 Rocket 4.0 06:05:00 10° SSW 06:09:11 44° WNW 06:13:28 10° N
Cosmos 1892 3.2 06:05:41 10° NNW 06:09:17 40° W 06:12:54 10° SSW
Landsat 4 3.7 06:11:05 10° S 06:14:46 61° WSW 06:18:32 10° NNW
COSMOS 2406 4.5 06:12:42 10° WSW 06:17:31 28° NW 06:22:23 10° NNE
Cosmos 2233 Rocket 4.3 06:11:51 10° S 06:17:56 73° E 06:24:05 10° NNE
ATLAS 2AS CENTAUR R/B 3.4 06:10:04 10° NW 06:18:12 73° NE 06:25:48 10° SE
Cosmos 1869 Rocket 3.6 06:13:43 10° N 06:18:14 86° W 06:22:41 10° S
Cosmos 1833 Rocket 2.9 06:14:16 10° SSW 06:19:54 79° ESE 06:25:35 10° NNE
Cosmos 2016 Rocket 4.2 06:17:24 10° SSW 06:23:19 50° WNW 06:29:15 10° N
